Aberdeen / Amory, MS

10:21 AM CDT on August 23, 2019 (GMT -0500)
Aberdeen / Amory

Weather History for KM40 - May, 2019

Change the Weather History Date:

Saturday, May 18, 2019

  Actual Average (KCBM) Record (KCBM)
Temperature  
Mean Temperature 74 °F -  
Max Temperature 86 °F 80 °F 91 °F (1998)
Min Temperature 62 °F 59 °F 41 °F (2011)
Cooling Degree Days 9    
Growing Degree Days 24 (Base 50)    
Moisture  
Dew Point 72 °F    
Average Humidity 92    
Maximum Humidity 100    
Minimum Humidity 74    
Precipitation  
Precipitation 0.00 in - - ()
Sea Level Pressure  
Sea Level Pressure 29.95 in    
Wind  
Wind Speed 5 mph ()    
Max Wind Speed 18 mph    
Max Gust Speed 23 mph    
Visibility 8.7 miles    
Events      
Averages and records for this station are not official NWS values.
T = Trace of Precipitation, MM = Missing Value Source: Averaged Metar Reports

Daily Weather History Graph

Daily Weather History Graph

Search for Another Location

Airport or City:

Astronomy

May. 18, 2019 Rise Set
Actual Time 5:50 AM CDT 7:50 PM CDT
Civil Twilight 5:23 AM CDT 8:18 PM CDT
Nautical Twilight 4:49 AM CDT 8:51 PM CDT
Astronomical Twilight 4:13 AM CDT 9:28 PM CDT
Moon 7:48 PM CDT (5/18) 5:53 AM CDT (5/18)
Length of Visible Light 14h 55m
Length of Day
13h 59m
Full, 100% of the Moon is Illuminated
May 18
Full
May 18
Full
May 26
Last Quarter
Jun 3
New
Jun 10
First Quarter

Hourly Weather History & Observations

Time (CDT) Temp. Heat Index Dew Point Humidity Pressure Visibility Wind Dir Wind Speed Gust Speed Precip Events Conditions
12:15 AM 66.2 °F - 66.2 °F 100% 29.97 in 10.0 mi Calm Calm - N/A   Clear
12:35 AM 66.2 °F - 66.2 °F 100% 29.97 in 9.0 mi Calm Calm - N/A   Clear
12:55 AM 66.2 °F - 66.2 °F 100% 29.97 in 9.0 mi Calm Calm - N/A   Scattered Clouds
1:15 AM 66.2 °F - 66.2 °F 100% 29.97 in 9.0 mi Calm Calm - N/A   Scattered Clouds
1:35 AM 66.2 °F - 66.2 °F 100% 29.97 in 7.0 mi Calm Calm - N/A   Clear
1:55 AM 64.4 °F - 64.4 °F 100% 29.97 in 7.0 mi Calm Calm - N/A   Partly Cloudy
2:15 AM 64.4 °F - 64.4 °F 100% 29.97 in 6.0 mi Calm Calm - N/A   Scattered Clouds
2:35 AM 66.2 °F - 66.2 °F 100% 29.97 in 10.0 mi SSE 3.5 mph - N/A   Partly Cloudy
2:55 AM 68.0 °F - 68.0 °F 100% 29.97 in 10.0 mi Calm Calm - N/A   Clear
3:15 AM 68.0 °F - 68.0 °F 100% 29.96 in 10.0 mi SSE 4.6 mph - N/A   Clear
3:35 AM 68.0 °F - 68.0 °F 100% 29.97 in 10.0 mi Calm Calm - N/A   Clear
3:55 AM 66.2 °F - 66.2 °F 100% 29.97 in 10.0 mi Calm Calm - N/A   Clear
4:15 AM 64.4 °F - 64.4 °F 100% 29.96 in 3.0 mi Calm Calm - N/A   Clear
4:35 AM 64.4 °F - 64.4 °F 100% 29.97 in 1.8 mi Calm Calm - N/A   Clear
4:55 AM 62.6 °F - 62.6 °F 100% 29.97 in 0.5 mi Calm Calm - N/A   Mist
5:15 AM 62.6 °F - 62.6 °F 100% 29.97 in 7.0 mi ESE 3.5 mph - N/A   Clear
5:35 AM 64.4 °F - 64.4 °F 100% 29.97 in 10.0 mi Calm Calm - N/A   Clear
5:55 AM 64.4 °F - 64.4 °F 100% 29.98 in 10.0 mi Calm Calm - N/A   Clear
6:15 AM 62.6 °F - 62.6 °F 100% 29.99 in 1.0 mi Calm Calm - N/A   Clear
6:35 AM 62.6 °F - 62.6 °F 100% 30.00 in 3.0 mi Calm Calm - N/A   Clear
6:55 AM 64.4 °F - 64.4 °F 100% 30.01 in 6.0 mi Calm Calm - N/A   Clear
7:15 AM 68.0 °F - 68.0 °F 100% 30.01 in 9.0 mi SSE 4.6 mph - N/A   Clear
7:35 AM 69.8 °F - 69.8 °F 100% 30.01 in 10.0 mi South 4.6 mph - N/A   Clear
7:55 AM 71.6 °F - 71.6 °F 100% 30.02 in 10.0 mi South 5.8 mph - N/A   Clear
8:15 AM 71.6 °F - 71.6 °F 100% 30.02 in 9.0 mi Variable 6.9 mph - N/A   Clear
8:35 AM 73.4 °F - 73.4 °F 100% 30.02 in 7.0 mi South 6.9 mph - N/A   Clear
8:55 AM - - - N/A% 30.03 in 8.0 mi South 6.9 mph - N/A   Clear
9:15 AM 75.2 °F - 75.2 °F 100% 30.03 in 9.0 mi South 9.2 mph - N/A   Clear
9:35 AM 77.0 °F - 77.0 °F 100% 30.02 in 10.0 mi South 8.1 mph - N/A   Partly Cloudy
9:55 AM 77.0 °F - 77.0 °F 100% 30.02 in 8.0 mi SSW 11.5 mph 17.3 mph N/A   Scattered Clouds
10:15 AM 78.8 °F - 78.8 °F 100% 30.02 in 10.0 mi South 8.1 mph 15.0 mph N/A   Scattered Clouds
10:35 AM 78.8 °F - 78.8 °F 100% 30.01 in 8.0 mi South 15.0 mph - N/A   Scattered Clouds
10:55 AM 80.6 °F 87.1 °F 77.0 °F 89% 30.00 in 10.0 mi SSE 13.8 mph - N/A   Partly Cloudy
11:15 AM 80.6 °F 88.1 °F 78.8 °F 94% 30.00 in 9.0 mi SSE 10.4 mph 16.1 mph N/A   Clear
11:35 AM 82.4 °F 90.9 °F 77.0 °F 84% 29.99 in 9.0 mi South 12.7 mph 19.6 mph N/A   Clear
11:55 AM 82.4 °F 90.9 °F 77.0 °F 84% 29.99 in 10.0 mi South 13.8 mph - N/A   Clear
12:15 PM 82.4 °F 89.5 °F 75.2 °F 79% 29.98 in 10.0 mi SSE 13.8 mph - N/A   Clear
12:35 PM 82.4 °F 89.5 °F 75.2 °F 79% 29.97 in 10.0 mi SSE 18.4 mph - N/A   Clear
12:55 PM 82.4 °F 89.5 °F 75.2 °F 79% 29.97 in 9.0 mi SSE 16.1 mph 23.0 mph N/A   Clear
1:15 PM 84.2 °F 94.1 °F 77.0 °F 79% 29.96 in 9.0 mi South 13.8 mph 20.7 mph N/A   Clear
1:35 PM 84.2 °F 92.3 °F 75.2 °F 74% 29.96 in 10.0 mi South 13.8 mph 21.9 mph N/A   Partly Cloudy
1:55 PM 84.2 °F 94.1 °F 77.0 °F 79% 29.95 in 10.0 mi South 15.0 mph 20.7 mph N/A   Scattered Clouds
2:15 PM 84.2 °F 94.1 °F 77.0 °F 79% 29.95 in 10.0 mi South 11.5 mph 20.7 mph N/A   Partly Cloudy
2:35 PM 84.2 °F 94.1 °F 77.0 °F 79% 29.95 in 9.0 mi South 12.7 mph 20.7 mph N/A   Partly Cloudy
2:55 PM 84.2 °F 94.1 °F 77.0 °F 79% 29.95 in 10.0 mi SSE 12.7 mph 20.7 mph N/A   Partly Cloudy
3:15 PM 84.2 °F 94.1 °F 77.0 °F 79% 29.94 in 10.0 mi SSE 11.5 mph 18.4 mph N/A   Scattered Clouds
3:35 PM 86.0 °F 96.9 °F 77.0 °F 74% 29.93 in 9.0 mi SSE 12.7 mph - N/A   Scattered Clouds
3:55 PM 86.0 °F 96.9 °F 77.0 °F 74% 29.92 in 9.0 mi South 17.3 mph 23.0 mph N/A   Partly Cloudy
4:15 PM 86.0 °F 96.9 °F 77.0 °F 74% 29.91 in 9.0 mi South 13.8 mph 19.6 mph N/A   Clear
4:35 PM 84.2 °F 94.1 °F 77.0 °F 79% 29.91 in 10.0 mi SSE 11.5 mph 19.6 mph N/A   Partly Cloudy
4:55 PM 84.2 °F 96.1 °F 78.8 °F 84% 29.91 in 10.0 mi SSE 10.4 mph 17.3 mph N/A   Partly Cloudy
5:15 PM 84.2 °F 94.1 °F 77.0 °F 79% 29.90 in 10.0 mi South 12.7 mph - N/A   Partly Cloudy
5:35 PM 84.2 °F 94.1 °F 77.0 °F 79% 29.89 in 10.0 mi SSE 12.7 mph - N/A   Clear
5:55 PM 84.2 °F 94.1 °F 77.0 °F 79% 29.88 in 8.0 mi SSE 9.2 mph 18.4 mph N/A   Clear
6:15 PM 82.4 °F 90.9 °F 77.0 °F 84% 29.87 in 9.0 mi SSE 10.4 mph 16.1 mph N/A   Clear
6:35 PM 82.4 °F 90.9 °F 77.0 °F 84% 29.88 in 8.0 mi SSE 9.2 mph - N/A   Clear
6:55 PM 82.4 °F 90.9 °F 77.0 °F 84% 29.88 in 9.0 mi SSE 8.1 mph - N/A   Clear
7:15 PM 80.6 °F 86.2 °F 75.2 °F 84% 29.88 in 9.0 mi SE 8.1 mph - N/A   Clear
7:35 PM 78.8 °F - 75.2 °F 89% 29.88 in 8.0 mi SE 5.8 mph - N/A   Clear
7:55 PM 77.0 °F - 75.2 °F 94% 29.88 in 9.0 mi SE 5.8 mph - N/A   Partly Cloudy
8:15 PM 77.0 °F - 75.2 °F 94% 29.88 in 10.0 mi SE 4.6 mph - N/A   Mostly Cloudy
8:35 PM 77.0 °F - 75.2 °F 94% 29.89 in 10.0 mi SSE 5.8 mph - N/A   Overcast
8:55 PM 77.0 °F - 75.2 °F 94% 29.90 in 10.0 mi SSE 8.1 mph - N/A   Overcast
9:15 PM 75.2 °F - 75.2 °F 100% 29.90 in 10.0 mi SE 5.8 mph - N/A   Mostly Cloudy
9:35 PM 75.2 °F - 75.2 °F 100% 29.91 in 10.0 mi SE 6.9 mph - N/A   Mostly Cloudy
9:55 PM 75.2 °F - 75.2 °F 100% 29.90 in 10.0 mi SE 9.2 mph - N/A   Scattered Clouds
10:15 PM 77.0 °F - 75.2 °F 94% 29.92 in 10.0 mi SSE 9.2 mph - N/A   Mostly Cloudy
10:35 PM 75.2 °F - 73.4 °F 94% 29.92 in 10.0 mi SSE 9.2 mph - N/A   Partly Cloudy
10:55 PM 75.2 °F - 73.4 °F 94% 29.92 in 10.0 mi South 9.2 mph - N/A   Partly Cloudy
11:15 PM 75.2 °F - 71.6 °F 89% 29.93 in 10.0 mi South 9.2 mph - N/A   Mostly Cloudy
11:35 PM 75.2 °F - 71.6 °F 89% 29.92 in 10.0 mi South 9.2 mph - N/A   Overcast
11:55 PM 75.2 °F - 71.6 °F 89% 29.92 in 9.0 mi South 6.9 mph - N/A   Overcast